• In Portugal
  • List of Countries
  • For 7 days
  • Water Temperature
  • Satellite Maps
  • Weather Map
  • Weather Widgets
  • user-avatar
    Login

    Hourly Weather Sabha

    Today, 23 June, Saturday

    Time Temperature Precipitation Wind Pressure Humidity
    00:00 +35°C° 0.3 mm 7 mps 723 mmHg 33%
    01:00 +35°C° 0 mm 6 mps 722 mmHg 31%
    02:00 +35°C° 0 mm 7 mps 722 mmHg 30%
    03:00 +35°C° 0 mm 7 mps 722 mmHg 29%
    04:00 +34°C° 0 mm 7 mps 722 mmHg 29%
    05:00 +34°C° 0 mm 7 mps 723 mmHg 28%
    06:00 +35°C° 0 mm 7 mps 723 mmHg 27%
    07:00 +35°C° 0 mm 8 mps 723 mmHg 26%
    08:00 +38°C° 0 mm 7 mps 723 mmHg 25%
    09:00 +39°C° 0 mm 7 mps 723 mmHg 24%
    10:00 +41°C° 0 mm 7 mps 723 mmHg 23%
    11:00 +43°C° 0 mm 7 mps 723 mmHg 21%
    12:00 +44°C° 0 mm 6 mps 723 mmHg 19%
    13:00 +43°C° 0 mm 5 mps 723 mmHg 18%
    14:00 +45°C° 0 mm 5 mps 722 mmHg 16%
    15:00 +45°C° 0 mm 5 mps 722 mmHg 15%
    16:00 +45°C° 0 mm 5 mps 722 mmHg 13%
    17:00 +45°C° 0 mm 5 mps 721 mmHg 13%
    18:00 +43°C° 0 mm 5 mps 721 mmHg 13%
    19:00 +42°C° 0 mm 4 mps 721 mmHg 13%
    20:00 +42°C° 0 mm 5 mps 721 mmHg 14%
    21:00 +41°C° 0 mm 5 mps 722 mmHg 14%
    22:00 +40°C° 0 mm 5 mps 722 mmHg 15%
    23:00 +38°C° 0 mm 7 mps 722 mmHg 21%

    Tomorrow, 24 June, Sunday

    Time Temperature Precipitation Wind Pressure Humidity
    00:00 +37°C° 0 mm 8 mps 722 mmHg 27%
    01:00 +36°C° 0 mm 10 mps 722 mmHg 33%
    02:00 +34°C° 0 mm 10 mps 722 mmHg 35%
    03:00 +33°C° 0 mm 9 mps 722 mmHg 38%
    04:00 +32°C° 0 mm 9 mps 722 mmHg 40%
    05:00 +32°C° 0 mm 9 mps 723 mmHg 40%
    06:00 +32°C° 0 mm 9 mps 723 mmHg 40%
    07:00 +31°C° 0 mm 8 mps 723 mmHg 40%
    08:00 +33°C° 0 mm 8 mps 723 mmHg 36%
    09:00 +35°C° 0 mm 8 mps 724 mmHg 33%
    10:00 +36°C° 0 mm 7 mps 724 mmHg 29%
    11:00 +38°C° 0 mm 6 mps 724 mmHg 26%
    12:00 +39°C° 0 mm 5 mps 724 mmHg 23%
    13:00 +40°C° 0 mm 5 mps 723 mmHg 21%
    14:00 +41°C° 0 mm 5 mps 723 mmHg 19%
    15:00 +41°C° 0 mm 4 mps 723 mmHg 17%
    16:00 +41°C° 0 mm 4 mps 722 mmHg 15%
    17:00 +41°C° 0 mm 4 mps 722 mmHg 15%
    18:00 +40°C° 0 mm 4 mps 722 mmHg 15%
    19:00 +40°C° 0 mm 4 mps 722 mmHg 15%
    20:00 +39°C° 0 mm 5 mps 723 mmHg 15%
    21:00 +38°C° 0 mm 6 mps 723 mmHg 16%
    22:00 +38°C° 0 mm 6 mps 724 mmHg 17%
    23:00 +36°C° 0 mm 6 mps 724 mmHg 17%

    Day after tomorrow, 25 June, Monday

    Time Temperature Precipitation Wind Pressure Humidity
    00:00 +35°C° 0 mm 6 mps 724 mmHg 18%
    01:00 +34°C° 0 mm 5 mps 723 mmHg 19%
    02:00 +34°C° 0 mm 5 mps 723 mmHg 21%
    03:00 +33°C° 0 mm 4 mps 723 mmHg 22%
    04:00 +33°C° 0 mm 4 mps 722 mmHg 23%
    05:00 +33°C° 0 mm 4 mps 722 mmHg 24%
    06:00 +33°C° 0 mm 4 mps 723 mmHg 25%
    07:00 +33°C° 0 mm 4 mps 723 mmHg 26%
    08:00 +35°C° 0 mm 4 mps 723 mmHg 23%
    09:00 +36°C° 0 mm 3 mps 723 mmHg 20%
    10:00 +38°C° 0 mm 3 mps 724 mmHg 17%
    11:00 +39°C° 0 mm 3 mps 723 mmHg 15%
    12:00 +40°C° 0 mm 2 mps 723 mmHg 14%
    13:00 +41°C° 0 mm 2 mps 723 mmHg 13%
    14:00 +42°C° 0 mm 3 mps 722 mmHg 12%
    15:00 +43°C° 0 mm 3 mps 722 mmHg 11%
    16:00 +43°C° 0 mm 4 mps 721 mmHg 10%
    17:00 +43°C° 0 mm 3 mps 721 mmHg 10%
    18:00 +42°C° 0 mm 3 mps 721 mmHg 10%
    19:00 +41°C° 0 mm 2 mps 721 mmHg 11%
    20:00 +42°C° 0 mm 3 mps 722 mmHg 11%
    21:00 +40°C° 0 mm 3 mps 722 mmHg 12%
    22:00 +40°C° 0 mm 4 mps 722 mmHg 12%
    23:00 +39°C° 0 mm 3 mps 721 mmHg 13%

    26 June, Tuesday

    Time Temperature Precipitation Wind Pressure Humidity
    00:00 +38°C° 0 mm 3 mps 721 mmHg 14%
    01:00 +37°C° 0 mm 2 mps 721 mmHg 15%
    02:00 +36°C° 0 mm 3 mps 721 mmHg 19%
    03:00 +35°C° 0 mm 4 mps 720 mmHg 22%
    04:00 +34°C° 0 mm 5 mps 720 mmHg 26%
    05:00 +33°C° 0 mm 6 mps 720 mmHg 31%
    06:00 +32°C° 0 mm 6 mps 721 mmHg 37%
    07:00 +30°C° 0 mm 6 mps 721 mmHg 42%
    08:00 +33°C° 0 mm 6 mps 721 mmHg 38%
    09:00 +34°C° 0 mm 5 mps 721 mmHg 33%
    10:00 +35°C° 0 mm 4 mps 721 mmHg 29%
    11:00 +37°C° 0 mm 4 mps 721 mmHg 26%
    12:00 +38°C° 0 mm 3 mps 721 mmHg 22%
    13:00 +39°C° 0 mm 2 mps 721 mmHg 19%
    14:00 +40°C° 0 mm 3 mps 720 mmHg 17%
    15:00 +41°C° 0 mm 4 mps 720 mmHg 15%
    16:00 +42°C° 0 mm 4 mps 720 mmHg 13%
    17:00 +41°C° 0 mm 4 mps 720 mmHg 13%
    18:00 +41°C° 0 mm 4 mps 720 mmHg 13%
    19:00 +41°C° 0 mm 5 mps 721 mmHg 13%
    20:00 +40°C° 0 mm 5 mps 721 mmHg 15%
    21:00 +39°C° 0 mm 5 mps 721 mmHg 17%
    22:00 +36°C° 0 mm 5 mps 721 mmHg 18%
    23:00 +36°C° 0 mm 5 mps 721 mmHg 20%

    27 June, Wednesday

    Time Temperature Precipitation Wind Pressure Humidity
    00:00 +35°C° 0 mm 5 mps 721 mmHg 22%
    01:00 +34°C° 0 mm 5 mps 721 mmHg 23%
    02:00 +33°C° 0 mm 5 mps 721 mmHg 24%
    03:00 +32°C° 0 mm 5 mps 721 mmHg 25%
    04:00 +32°C° 0 mm 5 mps 721 mmHg 26%
    05:00 +30°C° 0 mm 6 mps 721 mmHg 29%
    06:00 +30°C° 0 mm 6 mps 722 mmHg 31%
    07:00 +30°C° 0 mm 6 mps 722 mmHg 34%
    08:00 +32°C° 0 mm 6 mps 722 mmHg 32%
    09:00 +33°C° 0 mm 5 mps 723 mmHg 31%
    10:00 +34°C° 0 mm 4 mps 723 mmHg 29%
    11:00 +35°C° 0 mm 3 mps 723 mmHg 27%
    12:00 +36°C° 0 mm 2 mps 722 mmHg 24%
    13:00 +37°C° 0 mm 2 mps 722 mmHg 21%
    14:00 +37°C° 0 mm 2 mps 722 mmHg 19%
    15:00 +38°C° 0 mm 2 mps 722 mmHg 18%
    16:00 +38°C° 0 mm 3 mps 721 mmHg 16%
    17:00 +38°C° 0 mm 3 mps 722 mmHg 16%
    18:00 +38°C° 0 mm 3 mps 722 mmHg 16%
    19:00 +38°C° 0 mm 3 mps 722 mmHg 16%
    20:00 +37°C° 0 mm 4 mps 722 mmHg 16%
    21:00 +36°C° 0 mm 4 mps 723 mmHg 17%
    22:00 +36°C° 0 mm 5 mps 723 mmHg 18%
    23:00 +35°C° 0 mm 5 mps 723 mmHg 19%

    28 June, Thursday

    Time Temperature Precipitation Wind Pressure Humidity
    00:00 +34°C° 0 mm 5 mps 722 mmHg 20%
    01:00 +33°C° 0 mm 5 mps 722 mmHg 21%
    02:00 +33°C° 0 mm 5 mps 722 mmHg 22%
    03:00 +32°C° 0 mm 5 mps 722 mmHg 23%
    04:00 +30°C° 0 mm 4 mps 722 mmHg 24%
    05:00 +32°C° 0 mm 5 mps 723 mmHg 24%
    06:00 +32°C° 0 mm 5 mps 723 mmHg 24%
    07:00 +32°C° 0 mm 5 mps 724 mmHg 23%
    08:00 +33°C° 0 mm 4 mps 724 mmHg 22%
    09:00 +34°C° 0 mm 4 mps 724 mmHg 21%
    10:00 +36°C° 0 mm 4 mps 724 mmHg 19%
    11:00 +36°C° 0 mm 2 mps 724 mmHg 18%
    12:00 +36°C° 0 mm 1 mps 723 mmHg 16%
    13:00 +35°C° 0 mm 0 mps 723 mmHg 15%
    14:00 +37°C° 0 mm 1 mps 723 mmHg 14%
    15:00 +39°C° 0 mm 1 mps 722 mmHg 13%
    16:00 +39°C° 0 mm 2 mps 722 mmHg 13%
    17:00 +39°C° 0 mm 2 mps 722 mmHg 13%
    18:00 +39°C° 0 mm 3 mps 722 mmHg 13%
    19:00 +38°C° 0 mm 3 mps 722 mmHg 13%
    20:00 +38°C° 0 mm 3 mps 723 mmHg 14%
    21:00 +37°C° 0 mm 3 mps 723 mmHg 14%
    22:00 +37°C° 0 mm 4 mps 723 mmHg 15%
    23:00 +36°C° 0 mm 5 mps 723 mmHg 17%
    Show more